SCP
1 1 1 2 2 2 2 1 1 1 1 1 1 1 1 1 1 1 1 1 2 2 2 2 2 2 1 1 1 1 1 1 1 1 1 1 1 1 2 2 2 2 2
2 2 2 2 2 2 2 1 1 1 1 1 1 1 1 1 1 1 1 1 2 2 2 2 2 2 2 1 1 1 1 1 1 1 1 1 1 1 2 2 2 2 2
2 2 2 2 2 2 1 1 1 1 1 1 1 1 1 1 1 1 1 1 1 1 2 2 2 2 2 2 1 1 1 1 1 1 1 1 1 1 1 2 2 2 1
2 2 2 2 2 2 1 1 1 1 1 1 1 1 1 1 1 1 1 1 1 1 1 2 2 2 2 1 1 1 1 1 1 1 1 1 1 1 1 1 1 1 1
2 2 2 1 1 1 1 1 1 1 1 1 1 1 1 0 1 1 1 1 1 1 1 1 1 2 1 1 1 1 1 1 1 1 1 1 1 1 1 1 1 1 1
2 2 1 1 1 1 1 1 1 1 1 1 1 1 1 0 0 0 0 1 1 1 1 1 1 1 1 1 1 1 1 1 1 1 1 1 1 1 1 1 1 1 1
1 1 1 1 1 1 1 1 1 1 1 1 1 1 1 0 0 0 0 0 0 1 1 1 1 1 1 1 1 1 1 1 1 1 1 1 1 1 1 1 1 1 1
1 1 0 0 0 0 0 1 1 1 1 1 1 1 1 1 0 0 0 0 0 1 1 1 1 1 1 1 1 1 1 1 1 1 1 1 1 1 1 1 1 1 1
0 0 0 0 0 0 0 0 1 1 0 1 1 1 1 1 0 0 0 0 0 1 1 1 1 1 1 1 1 1 1 1 1 1 1 1 1 1 1 1 1 1 1
0 0 0 0 0 0 0 0 0 0 0 0 0 1 1 0 0 0 0 0 0 0 0 0 0 0 0 0 0 0 0 1 1 1 1 1 1 1 1 1 1 1 1
0 0 0 0 0 0 0 0 0 0 0 0 0 0 0 0 0 0 0 0 0 0 0 0 0 0 0 0 0 0 0 0 0 0 1 1 1 1 1 1 1 1 1
0 0 0 0 0 0 0 0 0 0 0 0 0 0 0 1 0 0 0 0 0 0 0 0 0 0 0 0 0 0 0 0 0 0 0 1 1 1 1 1 1 1 1
0 0 0 0 0 0 0 0 0 0 0 0 0 0 0 1 0 0 0 0 0 0 0 0 0 0 0 0 0 0 0 0 0 0 0 0 1 1 1 1 1 1 1
0 0 0 0 0 0 0 0 0 0 0 0 0 0 0 0 0 0 0 0 0 0 0 0 0 0 0 0 0 0 0 0 0 0 0 0 0 0 0 1 1 1 0
0 0 0 0 0 0 0 0 0 0 0 0 0 0 0 0 0 0 0 0 0 0 0 0 0 0 0 0 0 0 0 0 0 0 0 0 0 0 0 0 0 0 0
0 0 0 0 0 0 0 0 0 0 0 0 0 0 0 0 0 0 0 0 0 0 0 0 0 0 0 0 0 0 0 0 0 0 0 0 0 0 0 0 0 0 0
0 0 0 0 0 0 0 0 0 0 0 0 0 0 0 0 0 0 0 0 0 0 0 0 0 0 0 0 0 0 0 0 0 0 0 0 0 0 0 0 0 0 0
0 0 0 0 0 0 0 0 0 0 0 0 0 0 0 0 0 0 0 0 0 0 0 0 0 0 0 0 0 0 0 0 0 0 0 0 0 0 0 0 0 0 0
0 0 0 0 0 0 0 0 0 0 0 0 0 0 0 0 0 0 0 0 0 0 0 0 0 0 0 0 0 0 0 0 0 0 0 0 0 0 0 0 0 0 0
0 0 0 0 0 0 0 0 0 0 0 0 0 0 0 0 0 0 0 0 0 0 0 0 0 0 0 0 0 0 0 0 0 0 0 0 0 0 0 0 0 0 0
0 0 0 0 0 0 0 0 0 0 0 0 0 0 0 0 0 0 0 0 0 0 0 0 0 0 0 0 0 0 0 0 0 0 0 0 0 0 0 0 0 0 0
0 0 0 0 0 0 0 0 0 0 0 0 0 0 0 0 0 0 0 0 0 0 0 0 0 0 0 0 0 0 0 0 0 0 0 0 0 0 0 0 0 0 0
0 0 0 0 0 0 0 0 0 0 0 0 0 0 0 0 0 0 0 0 0 0 0 0 0 0 0 0 0 0 0 0 0 0 0 0 0 0 0 0 0 0 0
0 0 0 0 0 0 0 0 0 0 0 0 0 0 0 0 0 0 0 0 0 0 0 0 0 0 0 0 0 0 0 0 0 0 0 0 0 0 0 0 0 0 0
0 0 0 0 0 0 0 0 0 0 0 0 0 0 0 0 0 0 0 0 0 0 0 0 0 0 0 0 0 0 0 0 0 0 0 0 0 0 0 0 0 0 0
0 0 0 0 0 0 0 0 0 0 0 0 0 0 0 0 0 0 0 0 0 0 0 0 0 0 0 0 0 0 0 0 0 0 0 0 0 0 0 0 0 0 0
Wind_Speed
1 1 1 1 1 1 1 1 1 1 1 1 1 1 1 1 1 1 1 3 3 2 3 4 5 7 8 8 8 8 8 8 9 10 11 11 11 11 11 12 12 13 12
0 1 1 1 1 1 1 1 1 1 1 1 2 2 2 1 1 1 1 3 4 3 2 3 4 4 5 6 6 6 6 7 8 9 10 11 11 11 12 12 12 12 13
1 1 1 1 2 2 2 1 1 1 1 1 1 2 1 2 2 2 2 1 2 3 3 3 2 1 2 3 4 5 5 6 7 9 10 11 11 11 11 12 12 12 12
1 1 1 1 2 1 1 1 1 1 1 1 1 1 1 2 2 2 2 2 2 2 4 5 4 3 2 1 1 3 4 5 6 7 9 10 10 10 10 10 11 11 11
2 2 1 1 2 1 1 1 1 0 1 1 1 1 2 2 2 3 3 3 2 2 2 4 5 6 4 4 3 2 2 3 4 5 6 7 7 8 8 9 9 10 11
3 2 1 2 2 1 2 1 1 1 1 1 1 2 2 2 3 3 3 2 3 3 3 3 3 4 5 5 5 4 3 2 2 3 4 5 6 6 7 8 8 9 10
3 2 2 2 2 2 1 1 1 1 1 1 1 1 2 3 3 3 3 3 4 4 4 4 3 3 3 6 5 5 5 4 3 2 2 3 4 5 7 7 8 9 9
4 3 3 2 2 2 2 2 1 1 1 1 1 0 0 1 2 3 3 3 3 3 4 5 4 4 3 3 5 7 6 5 4 3 2 2 2 3 5 6 7 7 8
4 4 4 3 2 2 1 1 1 1 0 1 1 0 1 1 0 1 2 3 3 3 3 4 5 5 5 4 4 6 7 7 5 4 3 3 1 2 3 5 6 7 8
4 5 4 3 3 2 1 1 1 1 1 0 1 1 0 1 1 0 1 2 3 4 3 3 4 4 5 4 5 7 8 7 7 6 5 3 2 1 1 2 3 4 5
4 5 4 4 3 2 2 2 2 1 0 0 0 0 0 0 1 1 1 0 1 2 2 2 2 3 4 4 4 7 9 8 7 7 6 5 4 3 3 3 3 4 5
3 5 4 3 3 3 3 2 2 2 1 0 0 0 1 1 1 1 1 1 0 1 1 1 2 2 3 3 5 8 9 9 8 7 6 5 4 4 5 5 6 6 6
2 4 4 3 3 2 2 2 2 2 2 1 1 1 1 1 1 1 1 1 0 0 0 1 1 2 2 3 4 7 8 8 8 8 7 6 6 5 5 6 6 6 6
1 2 3 3 3 4 4 3 2 2 2 2 2 1 1 1 1 1 2 2 1 0 0 0 1 2 2 2 4 6 5 8 8 7 7 7 6 6 6 6 6 6 6
1 2 3 3 4 4 4 3 2 3 2 2 2 2 1 0 0 1 1 2 2 2 1 1 0 1 2 2 3 3 3 6 7 7 6 6 6 6 6 6 6 6 7
2 2 3 3 4 4 4 3 2 2 3 3 2 2 1 0 0 0 1 1 1 2 1 1 0 1 1 2 3 3 3 5 6 6 6 6 6 6 6 6 6 6 6
2 2 2 3 3 4 4 3 3 3 4 4 3 2 2 1 1 0 1 1 1 1 1 1 0 1 1 1 2 2 2 2 3 5 5 5 5 6 6 6 5 5 5
2 2 2 2 3 3 3 4 4 4 4 4 4 3 2 1 2 1 1 1 1 1 2 2 1 1 1 1 1 2 2 2 2 3 4 4 4 4 4 5 5 5 5
2 3 2 2 3 3 3 3 3 3 3 4 3 3 2 1 2 1 1 1 1 1 2 2 1 1 0 0 1 2 2 2 2 2 2 3 3 3 3 3 3 4 3
2 3 3 2 2 3 3 3 3 3 3 4 3 3 3 2 0 0 1 1 2 2 2 2 2 1 0 0 0 1 1 2 2 2 2 2 2 2 1 2 2 3 3
3 3 3 3 3 3 3 3 3 3 3 4 4 4 3 3 1 0 1 1 2 2 2 2 2 1 1 0 0 0 0 1 1 1 1 1 1 0 0 1 2 3 3
3 3 3 3 4 3 5 5 3 2 3 3 4 4 4 4 3 2 2 1 2 3 3 2 2 2 1 1 1 1 1 0 1 0 1 1 1 1 2 2 3 4 4
2 3 3 3 3 4 6 5 4 2 2 3 3 3 3 4 4 2 3 3 2 1 4 3 3 3 3 3 2 1 1 1 2 1 0 2 1 2 2 3 5 6 6
2 2 3 3 3 4 5 4 4 2 2 2 2 3 3 3 3 2 2 2 2 1 1 2 3 3 3 3 3 2 2 1 2 1 2 1 1 2 2 3 6 7 8
2 2 2 3 3 5 5 4 3 2 2 3 3 3 2 2 3 2 2 2 2 2 1 1 3 3 4 4 4 2 2 1 1 1 2 2 1 2 2 3 4 6 8
2 2 3 3 3 4 5 5 3 1 1 2 3 3 4 3 3 2 1 0 1 2 1 2 1 0 1 2 5 4 3 2 1 2 2 2 1 1 2 2 2 3 4
Wind_Direction
2 360 349 352 346 349 341 335 349 6 18 344 342 340 327 303 293 287 307 316 319 300 279 260 240 228 224 219 218 215 219 225 223 222 219 216 214 212 211 211 210 206 201
29 359 339 336 332 331 322 319 15 35 8 9 1 346 329 321 323 330 332 325 324 320 309 291 273 247 227 217 219 222 226 230 233 230 223 218 216 213 213 213 211 207 204
37 357 339 334 322 335 340 342 32 67 25 19 11 349 343 343 356 360 5 352 339 338 341 349 345 321 228 225 230 229 232 234 236 235 227 220 217 216 214 214 212 210 204
26 24 8 333 330 354 345 316 24 64 44 21 9 1 3 4 12 15 25 24 21 3 5 17 21 22 26 341 277 251 245 242 239 237 230 223 218 217 214 213 212 207 203
19 33 21 345 347 15 7 348 20 26 80 40 23 42 30 15 13 21 31 27 36 33 25 23 26 23 23 30 15 343 298 270 257 245 233 225 219 217 215 213 209 205 201
18 25 27 9 7 23 23 14 34 29 85 56 58 52 41 28 33 32 27 32 41 41 38 39 31 19 24 29 27 17 4 350 309 277 251 236 226 217 214 214 211 208 204
16 26 17 19 16 17 7 23 45 49 43 56 68 53 45 48 51 40 39 47 47 43 43 43 41 36 23 22 22 26 19 11 8 354 292 250 229 219 216 215 211 206 202
16 27 24 16 12 21 28 28 44 43 16 25 49 88 12 22 38 33 39 48 43 41 41 39 39 37 29 21 18 24 21 12 8 358 333 297 257 237 225 219 214 204 197
20 19 18 16 18 32 28 13 29 70 74 335 9 135 172 216 99 25 43 49 46 46 36 34 36 31 29 23 10 15 17 15 8 5 7 8 353 259 226 221 216 206 201
21 21 20 20 19 22 24 7 31 32 103 321 332 333 217 169 174 147 23 45 52 48 36 30 27 26 26 19 18 22 24 25 21 16 21 27 24 18 145 187 184 176 170
19 20 21 23 18 15 17 17 12 23 48 180 255 303 345 54 135 168 196 94 43 41 40 32 23 18 19 20 20 28 29 29 32 30 31 31 33 52 97 122 129 141 152
3 9 18 24 18 11 9 8 5 7 354 341 300 245 211 188 184 175 185 193 174 31 26 31 31 21 17 18 25 30 30 30 33 34 32 31 39 63 79 97 106 112 119
353 349 5 12 9 4 6 10 16 6 354 343 310 269 236 227 201 173 164 155 155 116 47 31 22 23 24 21 20 28 31 31 32 34 35 40 49 64 82 91 100 108 114
321 336 357 10 9 10 15 17 17 359 359 349 334 299 252 246 207 189 174 158 154 153 127 65 17 25 23 22 21 23 26 32 36 38 40 43 50 67 79 86 96 101 106
345 6 17 17 14 15 15 17 16 356 355 350 337 326 302 281 203 212 185 173 170 178 194 178 73 19 13 28 23 24 23 31 37 39 41 44 50 63 74 82 91 96 99
8 23 22 21 19 16 15 19 4 350 8 352 336 358 9 342 77 142 170 173 178 161 160 156 129 17 356 28 37 28 26 32 35 38 44 47 54 65 74 82 91 99 104
9 17 14 23 18 14 11 16 6 2 7 356 356 9 9 14 65 71 126 130 127 136 149 126 87 54 27 33 20 18 25 31 30 38 45 50 58 66 72 79 89 97 100
6 8 12 23 17 14 14 15 12 10 4 355 352 1 4 32 56 61 103 123 134 143 151 150 110 76 47 18 12 16 15 26 34 40 49 56 64 73 80 85 94 99 99
5 8 15 16 7 5 9 9 10 8 1 351 350 0 357 25 48 55 87 102 119 122 129 141 128 79 51 7 21 24 18 9 12 43 48 52 64 75 85 96 108 115 119
4 0 1 357 353 1 5 360 2 360 356 357 1 5 6 18 32 93 103 113 120 117 119 124 125 113 103 27 53 30 6 4 352 8 27 24 45 59 82 120 141 150 158
13 6 5 357 350 357 352 351 354 356 360 6 7 3 4 19 32 85 134 149 137 132 128 128 129 121 119 130 183 292 318 333 322 333 337 332 344 334 169 171 184 187 194
11 12 3 354 351 350 347 351 355 356 8 13 2 354 357 12 13 41 62 114 170 172 166 163 163 172 186 192 183 178 173 334 307 306 296 294 240 254 240 224 221 224 225
4 359 349 350 345 337 344 349 351 4 17 12 1 354 358 4 14 36 42 46 43 192 194 180 179 190 189 192 185 193 210 236 249 260 262 291 283 271 256 239 233 234 234
348 343 335 337 339 336 345 349 356 19 22 7 359 353 348 345 4 29 45 39 22 4 214 197 197 204 208 204 200 201 212 235 261 239 211 258 276 274 279 260 242 238 240
337 331 324 334 336 329 341 351 6 21 13 354 349 351 346 344 351 20 49 34 8 351 20 153 191 209 217 214 194 179 190 188 277 264 195 228 267 286 279 266 253 244 244
314 321 329 332 325 318 328 341 360 28 356 335 338 343 350 351 348 358 15 42 340 320 347 12 32 59 213 207 201 205 204 197 230 260 202 205 241 268 284 265 265 261 252